Home   Weather   Lille   Past weeks

Flag for France Past Weather in Lille, Nord-Pas-de-Calais, France — Yesterday and Last 2 Weeks

Now
46 °F

Overcast.


Feels Like: 42 °F
Forecast: 42 / 49 °F
Wind: 8 mph from Southwest

Location: Lille Airport

Current Time: Dec 8, 2016 at 11:07:28 pm

Latest Report: Dec 8, 2016 at 10:30 pm


Visibility: N/A

Pressure: 30.39 "Hg

Humidity: 82%

Dew Point: 41 °F

Location of LilleLocation

Past Weather in Lille — Graph

°F

Lille Temperature Yesterday

Maximum temperature yesterday: 48 °F (at 1:00 pm)
Minimum temperature yesterday: 36 °F (at 12:00 am)
Average temperature yesterday: 41 °F

High & Low Weather Summary for the Past Weeks

 TemperatureHumidityPressure
High52 °F (Nov 24, 12:30 pm)100% (Nov 26, 11:30 pm)30.57 "Hg (Nov 26, 11:30 pm)
Low23 °F (Nov 30, 6:30 am)53% (Nov 30, 2:00 pm)30.04 "Hg (Nov 23, 10:00 pm)
Average39 °F84%30.29 "Hg
* Reported Nov 23 10:00 pm — Dec 8 10:00 pm, Lille, Weather by CustomWeather, © 2016

Note: Actual official high and low records may vary slightly from our data, if they occured in-between our weather recording intervals... More about our weather records

Advertising

Lille Weather History for the Previous 24 Hours

Scroll right to see more
 ConditionsComfort  
Time TempWeatherWind HumidityBarometerVisibility
10:00 pm
Thu, Dec 8
46 °FOvercast.7 mph82%30.39 "HgN/A
9:30 pm46 °FOvercast.7 mph82%30.39 "HgN/A
9:00 pm46 °FPartly cloudy.8 mph76%30.36 "HgN/A
8:30 pm46 °FOvercast.13 mph76%30.36 "HgN/A
8:00 pm46 °FMostly cloudy.12 mph82%30.36 "HgN/A
7:30 pm46 °FMostly cloudy.15 mph82%30.36 "HgN/A
7:00 pm46 °FOvercast.10 mph82%30.36 "HgN/A
6:30 pm46 °FOvercast.13 mph82%30.33 "HgN/A
6:00 pm45 °FPassing clouds.8 mph87%30.36 "Hg6 mi
5:30 pm45 °FPassing clouds.9 mph87%30.33 "Hg5 mi
5:00 pm45 °FClear.7 mph81%30.33 "Hg5 mi
4:30 pm45 °FClear.8 mph87%30.33 "Hg5 mi
4:00 pm46 °FClear.8 mph76%30.33 "Hg6 mi
3:30 pm46 °FPassing clouds.9 mph82%30.33 "HgN/A
3:00 pm46 °FClear.10 mph76%30.33 "Hg6 mi
2:30 pm46 °FClear.10 mph76%30.36 "Hg5 mi
2:00 pm45 °FClear.12 mph81%30.36 "Hg5 mi
1:30 pm45 °FSunny.13 mph81%30.36 "Hg10 mi
1:00 pm45 °FClear.10 mph81%30.36 "Hg6 mi
12:30 pm45 °FClear.9 mph76%30.39 "Hg6 mi
12:00 pm43 °FClear.9 mph81%30.39 "Hg6 mi
11:30 am41 °FClear.9 mph81%30.39 "Hg6 mi
11:00 am39 °FClear.7 mph87%30.39 "Hg5 mi
10:30 am37 °FClear.8 mph93%30.39 "Hg5 mi
10:00 am37 °FClear.6 mph87%30.39 "Hg5 mi
9:30 am37 °FClear.6 mph87%30.42 "Hg6 mi
9:00 am37 °FClear.6 mph87%30.42 "Hg6 mi
8:30 am37 °FClear.9 mph87%30.39 "Hg6 mi
3:30 am37 °FClear.6 mph87%30.42 "Hg10 mi
2:30 am41 °FClear.5 mph81%30.42 "Hg10 mi
2:00 am43 °FClear.7 mph76%30.42 "Hg10 mi
1:30 am43 °FClear.8 mph81%30.42 "Hg10 mi
1:00 am43 °FClear.9 mph81%30.42 "Hg10 mi
12:30 am43 °FClear.8 mph81%30.42 "Hg10 mi
12:00 am43 °FClear.9 mph81%30.42 "Hg10 mi
11:30 pm
Wed, Dec 7
43 °FClear.8 mph81%30.42 "Hg10 mi
11:00 pm43 °FClear.8 mph81%30.42 "Hg10 mi
Weather by CustomWeather, © 2016

See weather overviewHow to use our weather pages